Regional Weather Roundup
Issued by NWS

Home | Current Version | Previous Version | Text Only | Print | Product List | Glossary Off
Versions: 1 2 3 4 5 6 7 8 9 10 11 12 13 14 15 16 17 18 19 20 21 22 23 24 25 26 27 28 29 30 31 32 33 34 35 36 37 38 39 40 41 42 43 44 45 46 47 48 49 50

516
ASUS44 KJAN 302303
RWRMS

MISSISSIPPI HOURLY WEATHER ROUNDUP
NATIONAL WEATHER SERVICE JACKSON MS
600 PM CDT THU OCT 30 2014

NOTE: "FAIR: INDICATES FEW OR NO CLOUDS BELOW 12,000 FEET WITH NO
SIGNIFICANT WEATHER AND/OR OBSTRUCTIONS TO VISIBILITY.

MSZ001>002-007>008-010>013-018>021-025>028-034>036-310000-
NORTHWEST MISSISSIPPI

CITY           SKY/WX    TMP DP  RH WIND       PRES   REMARKS
CLARKSDALE     FAIR      68  52  56 NW5       30.06R
CLEVELAND      FAIR      68  48  50 W3        30.05R
GREENWOOD      CLEAR     64  48  56 CALM      30.05S
GREENVILLE     CLEAR     67  45  45 W6        30.05R HAZE
GRENADA        FAIR      59  50  72 CALM      30.05S
OLIVE BRANCH   MOCLDY    61  43  51 S5        30.05S
OXFORD         FAIR      57  48  72 CALM      30.07S
TUNICA         PTCLDY    63  48  59 S3        30.05S
$$

MSZ003>006-009-014>017-022>024-029>033-037>039-310000-
NORTHEAST MISSISSIPPI

CITY           SKY/WX    TMP DP  RH WIND       PRES   REMARKS
COLUMBUS AFB   CLEAR     62  40  44 N2        30.04S
CORINTH        FAIR      61  41  48 CALM      30.04F
GOLDN TRIANGLE PTCLDY    64  37  36 N5        30.04S
STARKVILLE     FAIR      59  45  58 CALM      30.04S
TUPELO         CLEAR     63  40  42 N3        30.04S
$$

MSZ040-058-310000-
CENTRAL MISSISSIPPI

CITY           SKY/WX    TMP DP  RH WIND       PRES   REMARKS
JACKSON INTL   PTCLDY    67  42  40 NE3       30.04S
JACKSON HAWKNS CLEAR     69  40  34 CALM      30.05S
MERIDIAN KEY   CLEAR     62  42  47 N3        30.04R
MERIDIAN NAS   CLEAR     65  37  35 CALM      30.04S
RAYMOND        FAIR      66  63  88 CALM      30.05S
VICKSBURG      CLEAR     63  52  67 CALM      30.06S
$$

MSZ059>079-310000-
SOUTH MISSISSIPPI

CITY           SKY/WX    TMP DP  RH WIND       PRES   REMARKS
BROOKHAVEN     FAIR      68  39  34 CALM      30.06S
COLUMBIA         N/A     66  43  42 MISG      30.03R
HATTIESBURG    CLEAR     69  41  36 N3        30.04S
MCCOMB         CLEAR     71  40  32 CALM      30.04S
NATCHEZ        CLEAR     66  46  48 N5        30.07R
PINE BELT      CLEAR     66  39  37 N3        30.06R
$$

MSZ080>082-310000-
COASTAL MISSISSIPPI

CITY           SKY/WX    TMP DP  RH WIND       PRES   REMARKS
BAY ST LOUIS   CLEAR     64  45  48 CALM      30.02R
BILOXI         CLEAR     69  40  34 N6        30.01R
PASCAGOULA     CLEAR     65  40  39 N3        30.01R
GULFPORT       CLEAR     70  39  32 N5        30.01R
$$



USA.gov is the U.S. government's official web portal to all federal, state and local government web resources and services.